Location: Lane
(33.5226°N, 79.8788°W)
Time: 17:48:00
(UTC+00:00)

Transit 2A - Pass Details

Date: 26 September 2022
Orbit: 598 x 959 km, 66.7° (Epoch: 06 December)

Event Time Altitude Azimuth Distance (km) Brightness Sun altitude
Rises 04:24:56 0° 172° (S) 3,032 - -55.9°
Reaches altitude 10° 04:27:50 10° 155° (SSE) 2,063 - -56.2°
Maximum altitude 04:31:09 20° 109° (ESE) 1,475 - -56.4°
Drops below altitude 10° 04:34:20 10° 62° (ENE) 1,973 - -56.6°
Sets 04:37:01 0° 45° (NE) 2,856 - -56.7°
